Location: Poughquag
(41.6090°N, 73.6820°W)
Time: 14:33:28
(UTC-04:00)

Transit 2A - Pass Details

Date: 04 June 2020
Orbit: 592 x 967 km, 66.7° (Epoch: 05 July)

Event Time Altitude Azimuth Distance (km) Brightness Sun altitude
Rises 22:51:56 0° 321° (NW) 3,594 11.0 -19.9°
Reaches altitude 10° 22:54:39 10° 313° (NW) 2,676 9.9 -20.2°
Maximum altitude 23:00:17 35° 250° (WSW) 1,500 7.5 -20.7°
Enters shadow 23:03:25 23° 203° (SSW) 1,942 7.7 -20.9°
